Regional Weather Roundup
Issued by NWS

Home | Current Version | Previous Version | Text Only | Print | Product List | Glossary Off
Versions: 1 2 3 4 5 6 7 8 9 10 11 12 13 14 15 16 17 18 19 20 21 22 23 24 25 26 27 28 29 30 31 32 33 34 35 36 37 38 39 40 41 42 43 44 45 46 47 48 49 50

000
ASUS45 KCYS 282110
RWRWY

WYOMING REGIONAL WEATHER ROUNDUP
NATIONAL WEATHER SERVICE CHEYENNE WY
300 PM MDT FRI AUG 28 2015

NOTE:  "FAIR" INDICATES FEW OR NO CLOUDS BELOW 12,000 FEET
WITH NO SIGNIFICANT WEATHER AND/OR OBSTRUCTIONS TO VISIBILITY.

WYZ001-282200-
YELLOWSTONE NATIONAL PARK

CITY           SKY/WX    TMP DP  RH WIND       PRES   REMARKS
LK YELLOWSTONE   N/A     68  41  37 E3        30.38F
W YELLOWSTONE  NOT AVBL

$$
WYZ002>013-054>058-071-098>099-282200-
NORTHERN WYOMING

CITY           SKY/WX    TMP DP  RH WIND       PRES   REMARKS
JACKSON        FAIR      79  34  19 E3        30.28F
CODY           FAIR      84  39  20 E8        30.14F
GREYBULL       FAIR      85  45  24 SE5       30.08F
WORLAND        FAIR      85  48  27 NE3       30.10F
SHERIDAN       FAIR      86  38  18 W5        30.08F
BUFFALO        FAIR      85  38  18 SE7       30.15F
GILLETTE       FAIR      86  41  20 W9        30.11F
HULETT         FAIR      84  43  23 W6        30.11S
NEWCASTLE      FAIR      86  37  17 NW6       30.11F

$$
WYZ014>020-022>026-101>103-282200-
CENTRAL WYOMING

CITY           SKY/WX    TMP DP  RH WIND       PRES   REMARKS
BIG PINEY      FAIR      83  29  14 N8        30.33F
PINEDALE       FAIR      77  30  18 W12       30.34F
DUBOIS         FAIR      79  23  12 NW12G22   30.31S
LANDER         FAIR      83  39  21 VRB3      30.19F
RIVERTON       FAIR      82  40  22 VRB3      30.22F
CASPER         FAIR      81  38  21 S5        30.20F
DOUGLAS        FAIR      85  40  20 MISG      30.18F

$$
WYZ021-027>030-104>119-282200-
SOUTHERN WYOMING

CITY           SKY/WX    TMP DP  RH WIND       PRES   REMARKS
EVANSTON       PTSUNNY   80  35  19 N13       30.34F
KEMMERER       FAIR      79  28  15 CALM      30.36F
FORT BRIDGER   MOCLDY    84  30  14 N12       30.37F
ROCK SPRINGS   FAIR      81  31  16 MISG      30.32F
DIXON          FAIR      80  34  19 SW7       30.34F
RAWLINS        FAIR      77  34  21 VRB5      30.32F HAZE
SARATOGA       FAIR      73  39  29 NW5       30.35F
LARAMIE        FAIR      75  40  28 N9        30.35F
CHEYENNE       FAIR      80  37  21 VRB3      30.26F
TORRINGTON     FAIR      89  40  17 NW10      30.10F
PINE BLUFFS    FAIR      84  32  15 N6        30.19F

$$



USA.gov is the U.S. government's official web portal to all federal, state and local government web resources and services.